Total_Precipitation_Accumulation
1.68 1.59 1.58 1.53 1.48 1.49 1.56 1.74 2.07 1.91 1.30 0.98 0.99 1.04 1.13 1.24 1.29 1.19 1.14 1.39 1.49 1.56 1.67 1.75 1.86 2.03 2.38 2.95 3.62 4.58 5.23 4.94 4.13 3.57 3.55 3.95 4.49 5.01
1.79 1.76 1.62 1.54 1.54 1.57 1.65 1.67 1.78 1.96 1.63 1.00 0.88 0.95 1.10 1.30 1.43 1.21 1.18 1.41 1.45 1.53 1.54 1.57 1.74 1.92 2.15 2.45 2.85 3.46 4.41 4.95 4.74 4.22 3.86 4.01 4.33 4.80
1.75 1.79 1.68 1.57 1.69 1.73 1.79 1.81 1.74 1.78 1.81 1.19 0.94 1.01 1.26 1.41 1.49 1.35 1.32 1.32 1.32 1.48 1.54 1.55 1.60 1.82 2.01 2.18 2.39 2.77 3.44 4.22 4.72 4.78 4.49 4.28 4.34 4.45
1.72 1.74 1.72 1.64 1.66 1.70 1.82 1.83 1.74 1.66 1.76 1.54 1.20 1.18 1.33 1.48 1.54 1.52 1.49 1.44 1.31 1.43 1.51 1.61 1.60 1.73 1.95 2.06 2.17 2.40 2.77 3.31 3.90 4.42 4.63 4.36 4.25 4.30
1.65 1.69 1.72 1.72 1.65 1.60 1.70 1.76 1.69 1.64 1.69 1.72 1.44 1.29 1.39 1.54 1.71 1.76 1.70 1.67 1.51 1.50 1.52 1.61 1.72 1.75 1.88 2.01 2.13 2.25 2.38 2.55 2.96 3.64 4.29 4.39 4.22 4.24
1.57 1.57 1.64 1.77 1.79 1.76 1.77 1.74 1.78 1.87 1.85 1.85 1.67 1.49 1.52 1.64 1.82 1.92 1.95 1.88 1.78 1.60 1.63 1.70 1.78 1.84 1.84 1.87 1.88 1.94 2.06 2.36 2.73 3.22 3.71 4.11 4.18 4.17
1.51 1.42 1.50 1.79 2.02 2.18 2.21 2.04 2.06 2.26 2.24 2.18 2.03 1.80 1.66 1.73 1.86 1.86 1.97 1.93 1.91 1.77 1.68 1.69 1.68 1.67 1.67 1.74 1.77 1.79 1.89 2.10 2.40 2.74 3.16 3.55 3.88 4.09
1.56 1.42 1.44 1.73 1.93 2.12 2.29 2.23 2.23 2.42 2.55 2.49 2.30 2.00 1.64 1.52 1.62 1.87 2.14 2.35 2.32 1.98 1.79 1.83 1.67 1.73 1.70 1.63 1.78 1.85 1.88 2.04 2.25 2.48 2.76 3.06 3.41 3.82
1.48 1.44 1.48 1.59 1.76 1.77 1.95 2.03 1.99 2.15 2.39 2.50 2.48 2.00 1.74 1.63 1.90 2.21 2.26 2.38 2.25 2.11 2.12 2.24 1.90 1.83 1.75 1.79 1.91 1.85 1.93 2.00 2.13 2.31 2.52 2.73 3.00 3.37
1.54 1.45 1.40 1.44 1.60 1.81 1.91 1.89 1.75 1.77 1.99 2.16 2.36 2.15 1.94 1.98 2.36 2.72 2.86 2.85 2.53 2.33 2.28 2.57 2.16 1.93 1.84 1.82 1.92 1.81 1.83 1.92 2.01 2.11 2.28 2.50 2.71 2.98
1.61 1.52 1.39 1.33 1.61 1.86 1.81 1.76 1.65 1.64 1.77 1.99 2.16 2.23 2.27 2.43 2.77 3.27 3.50 3.52 3.20 2.74 2.44 2.52 2.39 2.21 2.20 2.19 2.12 2.02 1.83 1.81 1.89 1.98 2.08 2.23 2.47 2.81
1.64 1.57 1.64 1.60 1.75 1.80 1.67 1.75 1.85 1.67 1.57 1.62 1.69 1.75 1.77 1.92 2.40 2.88 3.33 3.56 3.33 3.16 2.66 2.50 2.49 2.54 3.03 2.78 2.37 2.06 1.89 1.85 1.82 1.84 1.88 1.95 2.16 2.31
1.67 1.65 1.58 1.78 1.82 1.81 1.78 1.72 1.91 1.79 1.64 1.70 1.67 1.60 1.57 1.68 1.87 2.21 2.80 3.34 3.46 3.18 2.69 2.81 2.97 2.62 2.88 2.96 2.64 2.23 1.87 1.75 1.67 1.73 1.77 1.83 1.89 1.95
1.69 1.57 1.55 1.78 1.82 1.86 1.79 1.83 1.90 1.86 1.73 1.75 1.66 1.55 1.55 1.64 1.78 1.99 2.30 2.69 2.90 2.87 2.60 2.84 3.34 2.95 2.72 2.57 2.53 2.41 2.02 1.80 1.64 1.60 1.61 1.88 1.97 1.99
1.82 1.86 1.81 1.89 1.89 1.76 1.73 1.78 1.71 1.61 1.69 1.75 1.64 1.44 1.37 1.49 1.61 1.76 1.89 2.13 2.35 2.43 2.50 2.62 2.94 2.96 2.86 2.67 2.25 2.08 2.09 2.10 1.82 1.66 1.63 1.67 1.72 1.78
1.97 1.95 1.94 1.97 1.90 1.81 1.73 1.58 1.45 1.49 1.61 1.62 1.52 1.39 1.29 1.35 1.50 1.62 1.78 1.91 2.24 2.41 2.44 2.56 2.82 3.12 3.12 2.48 2.18 1.99 1.82 2.15 2.09 1.81 1.71 1.69 1.62 1.54
2.03 2.07 2.00 1.96 1.96 1.80 1.59 1.41 1.35 1.45 1.53 1.43 1.43 1.44 1.40 1.39 1.40 1.45 1.67 1.83 2.10 2.23 2.37 2.60 2.85 3.02 3.11 2.88 2.57 2.10 1.78 1.79 1.88 1.79 1.75 1.83 1.84 1.71
2.15 2.11 1.89 1.68 1.62 1.55 1.47 1.38 1.32 1.33 1.33 1.35 1.41 1.41 1.40 1.41 1.42 1.41 1.55 1.76 1.95 2.02 2.12 2.35 2.71 3.03 3.20 3.25 2.86 2.26 1.90 1.83 1.90 1.86 1.75 1.82 2.01 1.93
1.93 1.74 1.58 1.48 1.42 1.38 1.33 1.30 1.27 1.20 1.22 1.31 1.37 1.36 1.34 1.38 1.43 1.47 1.52 1.66 1.80 1.94 2.06 2.17 2.47 2.89 3.11 3.24 3.23 2.60 2.15 1.97 2.02 2.17 2.03 1.82 1.88 1.96
1.58 1.54 1.48 1.42 1.41 1.44 1.41 1.35 1.28 1.24 1.27 1.29 1.30 1.30 1.33 1.40 1.44 1.42 1.45 1.60 1.71 1.82 1.98 2.11 2.39 2.73 2.98 2.92 3.03 2.96 2.66 2.27 2.11 2.31 2.26 2.02 1.95 2.09
1.42 1.42 1.41 1.42 1.44 1.46 1.41 1.37 1.34 1.28 1.23 1.24 1.22 1.21 1.24 1.35 1.37 1.31 1.37 1.52 1.64 1.74 1.88 2.00 2.18 2.42 2.60 2.67 2.70 2.70 2.82 2.80 2.38 2.28 2.28 2.27 2.21 2.20
1.37 1.40 1.39 1.41 1.46 1.48 1.44 1.39 1.38 1.31 1.23 1.21 1.17 1.15 1.17 1.26 1.33 1.31 1.38 1.47 1.50 1.59 1.73 1.85 1.96 2.20 2.48 2.73 2.69 2.54 2.67 2.84 2.79 2.53 2.33 2.24 2.33 2.47
1.46 1.47 1.45 1.44 1.43 1.44 1.43 1.38 1.34 1.29 1.22 1.20 1.17 1.16 1.18 1.23 1.23 1.29 1.35 1.37 1.42 1.47 1.59 1.81 1.98 2.15 2.40 2.56 2.63 2.49 2.44 2.56 2.60 2.61 2.73 2.41 1.99 1.83